Date,TemperatureHighF,TemperatureAvgF,TemperatureLowF,DewpointHighF,DewpointAvgF,DewpointLowF,HumidityHigh,HumidityAvg,HumidityLow,PressureMaxIn,PressureMinIn,WindSpeedMaxMPH,WindSpeedAvgMPH,GustSpeedMaxMPH,PrecipitationSumIn
2013-5-1,84,73,66,57,50,36,64,47,21,30.05,29.97,16,6,16,0.00
2013-5-2,77,70,65,62,56,50,81,62,44,30.01,29.90,20,8,20,0.00
2013-5-3,74,68,62,63,58,53,84,71,48,29.96,29.91,16,6,16,0.00
2013-5-4,78,70,64,65,59,54,88,69,44,30.02,29.88,17,6,17,0.07
2013-5-5,79,70,63,63,59,56,86,69,46,30.03,29.91,18,6,18,0.06
2013-5-6,70,66,61,62,59,54,88,78,69,30.03,29.88,22,11,22,0.02
2013-5-7,68,62,57,59,56,53,89,80,65,30.03,29.99,24,7,24,0.14
2013-5-8,69,65,60,59,58,52,88,77,56,30.02,29.92,20,6,20,0.00
2013-5-9,73,67,61,62,58,51,86,74,47,29.99,29.93,22,7,22,0.00
2013-5-10,71,66,61,62,60,56,87,79,64,29.99,29.94,20,6,20,0.00
2013-5-11,70,66,63,61,58,52,86,76,63,29.98,29.88,26,8,26,0.00
2013-5-12,68,64,62,58,55,52,79,73,60,29.92,29.85,22,9,22,0.00
2013-5-13,69,64,60,59,55,47,83,74,61,29.98,29.87,20,6,20,0.06
2013-5-14,70,64,57,57,47,40,73,56,35,30.01,29.91,20,6,21,0.00
2013-5-15,72,65,59,56,51,44,75,61,37,29.91,29.72,20,6,20,0.00
2013-5-16,83,72,67,64,55,48,76,57,42,29.72,29.50,27,8,27,0.02
2013-5-17,69,66,64,62,58,54,89,76,60,29.96,29.58,26,13,26,0.02
2013-5-18,84,71,57,56,50,40,81,52,29,30.01,29.84,23,5,23,0.00
2013-5-19,78,67,61,63,55,48,88,66,35,30.10,29.82,28,13,28,0.00
2013-5-20,69,64,59,58,54,50,79,70,59,30.14,30.09,22,8,22,0.00
2013-5-21,80,66,58,56,50,42,75,58,28,30.10,29.80,20,5,20,0.06
2013-5-22,83,72,60,64,57,51,87,61,44,29.80,29.33,26,9,26,0.89
2013-5-23,67,62,59,60,57,54,92,82,64,29.71,29.39,33,14,33,0.48
2013-5-24,66,63,60,57,53,50,84,71,60,29.91,29.71,40,22,40,0.01
2013-5-25,64,60,55,55,50,45,88,70,57,29.95,29.89,31,15,31,0.13
2013-5-26,63,60,56,54,47,41,87,62,51,30.05,29.88,38,20,38,0.04
2013-5-27,66,60,54,51,49,45,78,66,49,30.06,29.92,20,6,20,0.00
2013-5-28,78,65,53,59,49,36,78,59,28,29.92,29.63,16,5,16,0.00
2013-5-29,67,64,60,60,56,47,86,75,61,29.78,29.69,25,11,25,0.00
2013-5-30,63,59,54,52,50,46,86,71,58,29.82,29.75,34,10,35,0.09
2013-5-31,63,59,53,59,52,47,87,79,66,29.83,29.75,34,14,34,0.12